User: anonymous   Login
Location: Unspecified
(0.0000°N, 0.0000°E)
Time: 18:55:55
(UTC+02:00)
Language:

Cosmos 1072 Rocket - Orbit

View from above orbital plane
View from above orbital plane
View from above satellite
View from above satellite

Ground track
Ground track

The orbit data is extracted from the following two-line orbital elements,

1 11239U 79003B   15181.43114731  .00000033  00000-0  18261-4 0  9993
2 11239 082.9391 261.3042 0039596 236.5609 198.5302 13.75779076829167
Epoch (UTC): 30 June 2015 10:20:51
Eccentricity: 0.0039596
inclination: 82.9391°
perigee height: 950 km
apogee height: 1008 km
right ascension of ascending node: 261.3042°
argument of perigee: 236.5609°
revolutions per day: 13.75779076
mean anomaly at epoch: 198.5302°
orbit number at epoch: 82916

The dashed part of the orbit path shows where the satellite is in the earth's shadow,  

DLR